Torna al catalogo

COSMOS 1348 DEB

LostHEO
NORAD 32771·DEBRIS·🇷🇺 Russia

Lanciato Apr 7, 1982 da Plesetsk Cosmodrome

Loading…

Prossimi Passaggi (prossime 24 ore)

TLE

ObsoletoSource: Space-Track

Epoca: Apr 29, 2011, 06:16 UTC

1 32771U 82029E   11119.26152229  .00000039  00000-0  10000-3 0  9999
2 32771  71.4236  24.9352 5028930 150.4083 251.2128  1.95935068 37533

Traccia COSMOS 1348 DEB in tempo reale con AllMySat

Download on the App Store